Regional Weather Roundup
Issued by NWS Jackson, KY

Home | Current Version | Previous Version | Graphics & Text | Print | Product List | Glossary On
Versions: 1 2 3 4 5 6 7 8 9 10 11 12 13 14 15 16 17 18 19 20 21 22 23 24 25 26 27
000
ASUS43 KJKL 281310
RWRJKL

EAST KENTUCKY HOURLY WEATHER ROUNDUP
NATIONAL WEATHER SERVICE JACKSON KY
900 AM EDT FRI APR 28 2017

NOTE: "FAIR" INDICATES FEW OR NO CLOUDS BELOW 12,000 FEET WITH
NO SIGNIFICANT WEATHER AND/OR OBSTRUCTIONS TO VISIBILITY.

* THESE REPORTS ARE NOT UNDER NWS QUALITY CONTROL AND MAY NOT
  REPORT WEATHER SUCH AS PRECIPITATION AND FOG.

KYZ079-080-083-085-087-088-110-112-115-119-120-281400
...EASTERN KENTUCKY...

CITY           SKY/WX    TMP DP  RH WIND       PRES   REMARKS
JACKSON        SUNNY     58  51  78 CALM      30.03S
LONDON         SUNNY     59  52  77 E6        30.01R
SOMERSET*      CLOUDY    57  52  82 CALM      30.02S
MONTICELLO*    CLOUDY    59  54  83 NW9       30.02R
WILLIAMSBURG*  SUNNY     57  57 100 SE7       30.01R
MIDDLESBORO*   FOG       51  51 100 CALM      30.05R VSB 1/2
HARLAN APT*    PTSUNNY   55  54  94 CALM      30.04S
PIKE CO APT*     N/A     59  56  90 CALM      30.04S
BIG SANDY APT* SUNNY     61  55  81 CALM      30.04S
MOREHEAD APT*  SUNNY     57  48  72 VRB5      30.07R
ASHLAND*       SUNNY     54  52  94 NW3       30.05R
$$

KYZ035-036-041-042-044-050-067-078-099-281400
...CENTRAL KENTUCKY...

CITY           SKY/WX    TMP DP  RH WIND       PRES   REMARKS
MT STERLING*   CLOUDY    55  48  76 E8        30.05S
FLEMING/MASON* CLOUDY    52  48  87 E3        30.05F
DANVILLE*      SUNNY     55  50  82 SE3       30.03R
LEXINGTON      CLOUDY    58  48  69 E9        30.02S
FRANKFORT      MOSUNNY   55  48  77 E8        30.00S
LOUISVILLE     CLOUDY    56  49  77 E9        29.99S
LEBANON*         N/A     57  50  77 E8        30.00F
GLASGOW*       CLOUDY    56  55  93 E10       29.95F
BOWLING GREEN  CLOUDY    56  54  93 E6        29.94F
$$

KYZ091>093-OHZ055-061-077-WVZ005-015-034-035-042-281400
...SOUTHERN OHIO/WEST VIRGINIA...

CITY           SKY/WX    TMP DP  RH WIND       PRES   REMARKS
COVINGTON      CLOUDY    52  47  83 SE12      30.02F
COLUMBUS       CLOUDY    53  46  77 SE6       30.05R
DAYTON         CLOUDY    50  44  80 SE9       30.06R
WILMINGTON     CLOUDY    52  47  83 SE12      30.03R
HUNTINGTON     SUNNY     59  51  75 CALM      30.06R
CHARLESTON     MOSUNNY   56  55  97 CALM      30.04S
PINEVILLE*     MOSUNNY   60  60  97 MISG      30.11R
BECKLEY        SUNNY     61  54  77 E3        30.07R
BLUEFIELD      SUNNY     61  56  83 N3        30.09R
LOGAN CO APT*    N/A     61  55  82 CALM      30.05R
$$

VAZ002-007-008-TNZ017-027-036-066-071-281400
...SOUTHWEST VIRGINIA/EAST TENNESSEE...

CITY           SKY/WX    TMP DP  RH WIND       PRES   REMARKS
WISE*          SUNNY     63  61  94 CALM      30.08S
JONESVILLE*    PTSUNNY   61  61 100 CALM      30.06R
ABINGDON*      FOG       59  59 100 E6        30.08R VSB 1/4
BRISTOL        FOG       58  58 100 NE3       30.06R VSB 1/8
MORRISTOWN*    FOG       59  59 100 CALM      30.02S VSB 1/4
SEVIERVILLE*   SUNNY     57  55  94 CALM      30.02R
KNOXVILLE      MOSUNNY   62  56  80 N3        30.00R
LAFOLLETTE*    SUNNY     57  55  94 CALM      30.05R
OAK RIDGE      SUNNY     59  55  87 VRB3      30.03R
CROSSVILLE     PTSUNNY   60  54  80 CALM      30.02R
NASHVILLE      PTSUNNY   59  54  83 SE5       29.92F
$$

...KEY TO REMARKS...
VSB - VISIBILITY IN MILES
WCI - WIND CHILL INDEX
HX  - HEAT INDEX

$$




USA.gov is the U.S. government's official web portal to all federal, state and local government web resources and services.